Location: Bessat
(45.8735°N, 1.9924°E)
Time: 04:23:52
(UTC+00:00)

Cosmos 2297 - Pass Details

Date: 11 May 2021
Orbit: 837 x 857 km, 71.0° (Epoch: 14 June)

Event Time Altitude Azimuth Distance (km) Brightness Sun altitude
Exits shadow 23:04:26 33° 240° (WSW) 1,393 4.6 -25.2°
Maximum altitude 23:06:47 55° 301° (WNW) 1,013 4.2 -25.3°
Drops below altitude 10° 23:12:22 10° 19° (NNE) 2,476 6.9 -25.5°
Sets 23:14:52 0° 24° (NNE) 3,411 7.7 -25.5°
